Wind_Speed
10 13 15 14 12 14 14 12 9 5 5 8 12 17 22 24 24 25 25 24 23 23 22 20 19 18 18 17 17 16 16 17 19 20 20 20 20 19 19 19 20 21 21 22 23 23 24 24 25
15 18 18 16 12 14 12 8 5 5 8 12 15 19 21 22 23 22 20 19 18 18 17 16 15 15 14 14 15 15 15 17 19 20 20 21 21 21 21 21 22 23 24 25 25 26 27 28 29
17 20 18 13 10 8 7 3 3 8 14 17 19 19 20 19 17 16 15 14 14 14 14 13 12 12 11 12 13 14 14 15 17 19 20 20 21 22 24 24 25 26 27 28 28 29 30 31 33
19 21 16 11 10 6 3 5 11 15 17 19 19 18 16 13 12 13 12 12 12 13 13 13 12 11 10 11 12 13 13 13 14 16 18 19 21 23 25 27 28 29 30 31 32 32 34 36 37
19 19 15 12 9 3 4 11 17 19 18 18 14 12 13 13 12 12 12 12 14 14 14 13 13 11 10 10 11 11 12 12 13 14 16 18 20 23 25 26 28 28 30 32 33 34 36 37 37
19 17 15 11 6 1 9 14 18 16 15 13 12 11 14 14 12 13 14 14 15 15 14 12 11 11 10 10 11 11 13 15 16 17 17 18 20 21 21 21 22 24 25 27 29 30 31 31 31
17 14 12 7 1 5 9 13 14 13 13 12 11 13 14 14 14 14 15 15 16 16 14 11 9 10 10 11 12 14 15 17 19 19 19 19 19 20 20 21 21 22 23 24 24 25 25 26 26
14 11 9 5 3 4 9 15 16 15 14 15 15 15 16 16 16 16 17 17 17 15 13 10 10 11 11 12 14 15 17 19 21 22 22 23 23 22 22 22 22 22 22 22 23 24 24 24 24
15 14 11 9 6 3 10 16 17 17 18 18 17 18 19 20 20 19 21 20 18 16 13 12 13 13 13 13 15 17 20 22 24 25 26 27 27 26 26 25 24 23 23 23 24 25 25 25 26
17 17 12 10 8 5 11 14 16 18 18 19 19 21 23 23 22 22 23 20 17 14 14 15 14 15 15 15 17 19 22 24 26 26 26 27 28 28 28 27 26 26 25 26 26 27 28 29 29
18 17 13 11 9 9 13 14 17 19 18 19 21 23 25 25 24 23 22 16 13 14 16 17 17 16 16 17 19 21 23 25 25 25 25 25 26 27 27 27 27 27 26 27 28 29 30 31 31
19 18 16 13 15 16 17 19 20 21 20 21 22 24 25 25 24 23 21 17 15 17 18 21 22 18 16 16 17 19 21 23 25 25 26 26 27 27 28 27 26 27 28 30 30 31 32 33 33
21 21 18 15 18 22 23 24 26 25 23 23 23 24 25 25 24 23 23 22 22 23 24 23 23 19 17 17 17 18 21 24 27 29 29 29 29 29 29 29 28 29 31 33 35 36 36 36 37
23 22 21 19 18 23 26 28 28 26 25 23 23 25 26 26 26 25 25 26 27 28 27 29 27 26 26 23 21 21 24 27 30 32 31 31 30 30 31 32 32 33 35 37 39 40 41 42 43
23 22 19 18 18 20 24 26 26 25 26 24 24 26 27 27 27 27 28 29 30 30 30 32 33 33 33 30 26 28 30 30 31 32 32 33 34 35 37 37 38 40 42 43 45 46 46 47 48
23 21 18 15 14 13 19 20 18 22 25 25 25 27 29 28 29 29 30 31 32 32 34 35 34 35 35 32 32 33 33 33 33 33 34 35 36 38 39 40 42 44 45 47 49 50 50 49 50
23 21 14 10 10 10 14 15 15 19 22 24 26 28 31 32 32 33 33 34 34 34 36 37 37 37 37 36 35 34 34 34 34 35 36 37 38 39 40 42 43 44 46 48 49 49 50 51 52
23 20 15 15 13 13 15 17 19 22 23 25 27 30 33 34 35 34 34 34 34 36 37 38 39 39 38 37 37 36 36 35 35 35 35 36 38 40 41 43 45 47 49 50 51 51 54 57 58
25 24 21 21 18 17 17 21 24 26 27 28 30 32 34 33 34 33 32 32 34 35 37 38 39 39 40 40 39 39 38 38 37 38 38 39 40 42 45 47 49 51 53 54 55 58 61 64 67
28 26 24 23 19 16 16 18 23 28 31 32 34 34 33 31 31 31 31 31 33 35 37 38 39 40 40 41 41 41 41 41 41 41 42 43 45 47 49 51 54 55 58 60 62 64 67 71 74
28 26 25 26 24 21 19 19 24 30 34 36 36 33 29 27 27 29 30 31 32 34 37 38 38 39 40 41 42 43 43 44 44 46 47 49 51 52 54 56 57 59 62 65 67 69 72 74 75
27 23 25 27 30 28 26 26 28 33 37 38 35 31 27 27 29 31 32 32 32 34 36 36 37 39 41 43 44 45 46 47 48 50 52 54 55 57 59 60 61 64 65 66 67 67 68 68 68
26 23 24 27 31 35 35 35 34 38 40 38 35 31 30 31 33 34 34 33 33 35 35 36 38 41 44 46 47 48 50 51 52 54 56 57 59 61 62 63 65 64 64 62 61 61 60 59 58
25 25 26 30 32 35 35 39 42 43 41 39 37 35 34 35 36 37 37 36 36 37 37 38 41 44 47 49 50 52 53 54 55 57 59 60 61 62 63 64 63 62 58 56 55 55 54 53 53
29 28 30 34 37 37 32 37 42 43 43 43 42 39 38 38 40 41 41 40 41 40 40 41 44 47 50 52 53 55 55 57 58 60 61 62 62 62 62 61 59 55 51 49 49 49 49 50 50
28 31 32 33 34 32 32 36 36 37 39 39 39 39 39 40 42 43 42 42 43 42 42 44 46 48 52 55 56 57 57 58 60 61 62 63 62 61 60 56 51 47 45 44 45 46 48 49 49
26 29 29 31 31 30 32 33 34 33 33 35 36 37 36 37 38 39 39 40 41 42 44 45 46 49 53 56 57 57 59 61 63 64 64 63 62 60 55 48 44 42 41 43 45 47 48 49 50
29 28 29 32 33 34 36 37 37 35 34 34 35 35 35 34 35 36 37 39 41 44 46 46 48 51 55 57 59 61 63 64 66 67 67 65 60 54 46 42 40 40 42 45 47 49 50 51 51
29 30 31 33 35 35 35 34 32 37 39 39 40 40 40 39 38 38 39 41 43 45 46 46 49 53 56 59 63 65 66 67 67 67 64 57 49 42 39 38 39 41 44 47 49 51 52 52 52
31 29 30 35 37 37 37 34 32 35 38 41 43 43 43 43 42 42 42 43 44 44 43 46 50 54 58 62 66 66 66 66 65 61 52 43 38 35 36 37 40 44 47 50 52 52 52 52 51
Wind_Direction
135 124 120 123 139 160 181 211 220 219 262 284 293 297 298 297 300 303 304 303 302 301 301 299 293 285 280 277 273 272 273 274 273 273 272 272 273 275 277 279 278 277 276 274 271 267 265 264 265
133 127 125 128 149 172 192 211 226 268 287 298 299 297 296 296 299 301 300 301 304 308 309 306 299 291 284 276 271 273 274 273 271 269 268 269 271 274 275 275 273 272 271 270 269 268 267 266 265
136 135 133 138 162 175 166 160 311 299 299 306 307 304 301 301 305 305 304 309 319 329 332 324 311 300 290 279 275 276 277 273 269 267 266 268 270 272 274 275 274 272 270 269 268 266 266 266 266
139 140 144 157 178 170 95 6 318 298 296 305 308 308 310 322 329 325 321 328 336 344 345 339 327 313 297 284 279 278 280 279 276 273 271 271 272 272 274 274 274 274 274 272 270 269 268 268 268
141 147 157 178 203 220 1 343 316 301 293 297 309 327 343 347 348 344 340 343 344 345 345 343 337 324 309 297 289 288 290 292 289 286 285 283 282 283 281 279 277 277 277 275 272 272 272 274 275
141 153 172 190 214 329 1 332 311 298 292 294 310 336 344 345 344 343 343 342 341 339 335 332 333 330 321 315 312 308 307 307 305 302 299 296 295 294 294 289 286 284 283 282 279 278 278 280 281
143 159 178 175 119 19 347 317 308 300 296 303 326 343 340 344 345 344 340 336 335 332 328 321 319 319 321 324 322 319 318 317 317 316 315 312 310 308 304 299 295 291 287 284 283 282 282 282 282
161 187 189 154 81 13 321 305 308 303 304 323 338 340 335 337 343 342 336 331 331 328 327 328 320 311 313 315 315 317 318 318 318 318 317 316 315 313 309 304 298 294 291 287 284 282 281 281 282
185 194 175 138 106 303 289 290 301 304 310 324 333 333 327 327 330 329 329 326 328 326 325 325 318 312 307 307 310 312 312 312 312 311 312 312 312 312 310 307 301 296 291 287 284 282 282 281 282
195 196 181 156 137 240 268 281 290 296 305 315 321 320 318 318 321 324 327 325 325 322 317 318 311 304 298 301 304 304 304 304 305 305 307 309 309 310 309 306 302 296 292 288 285 283 281 280 279
209 208 204 187 172 222 250 263 279 290 299 307 309 311 312 314 319 324 327 324 323 319 318 318 313 306 300 298 299 301 303 303 303 303 304 306 307 307 307 306 304 302 298 295 290 286 282 280 279
228 231 234 222 203 213 237 253 267 282 291 297 300 304 307 312 319 323 326 325 321 322 320 323 321 311 304 305 305 307 307 306 304 303 304 306 306 306 307 305 303 303 302 301 297 291 286 282 280
239 242 245 237 221 217 230 246 260 271 282 290 295 301 306 313 319 327 331 331 328 325 324 319 324 320 316 316 315 313 313 313 311 311 309 310 309 309 309 307 303 302 302 301 298 294 288 283 280
243 249 256 255 243 228 227 239 251 262 274 283 292 299 304 311 320 330 334 335 334 329 325 327 329 331 330 324 317 320 322 319 316 314 312 311 309 309 308 304 300 297 296 296 294 291 287 282 279
253 258 265 265 256 240 233 237 247 256 266 275 283 289 297 309 319 327 332 334 332 328 328 329 332 334 334 330 323 322 325 324 319 315 312 311 309 308 306 304 302 301 299 298 296 292 288 285 281
258 262 271 271 256 247 245 244 244 250 256 267 277 286 294 304 314 322 328 329 327 324 325 325 327 329 330 327 321 321 322 321 318 314 312 310 309 308 306 303 303 301 299 299 298 294 290 286 284
254 259 263 247 225 233 250 251 242 251 258 268 280 288 292 298 307 315 320 322 322 320 320 321 321 322 322 321 320 319 319 318 316 313 311 310 309 307 306 303 302 300 297 297 295 291 287 286 287
252 253 240 220 209 223 244 251 250 253 260 270 282 290 293 296 301 307 313 317 316 316 318 319 319 319 319 319 319 318 317 315 313 311 310 309 308 307 305 302 301 299 297 295 292 287 286 286 287
242 242 234 227 224 237 248 250 251 257 263 273 282 290 291 291 296 302 309 312 313 315 318 319 318 318 318 318 317 316 315 314 313 312 311 309 307 305 303 301 300 297 296 294 292 289 288 287 287
242 243 237 225 221 240 255 255 252 255 262 270 278 284 285 286 292 299 305 307 310 313 316 316 316 316 316 316 316 315 314 313 312 311 310 308 306 304 302 300 299 298 296 296 294 292 290 289 288
242 244 237 225 215 226 242 247 247 250 256 265 274 280 283 284 288 294 299 301 305 309 313 314 314 314 314 315 315 314 313 312 311 310 309 307 305 304 302 301 300 298 297 296 295 294 293 291 290
235 235 233 228 220 221 233 246 247 252 257 264 272 278 283 285 288 293 295 296 300 306 311 312 313 313 314 315 315 314 312 311 309 308 307 306 305 304 304 303 302 301 300 299 299 298 297 296 294
232 227 230 237 235 227 227 240 247 253 258 265 272 277 282 284 287 289 290 289 293 301 307 312 314 315 316 316 315 314 312 310 308 307 306 305 305 304 304 303 303 302 301 301 302 302 302 301 299
226 231 236 243 246 243 233 237 243 251 259 264 268 272 277 280 282 284 285 284 288 296 302 307 311 314 315 315 314 313 312 310 309 308 307 306 305 304 303 302 301 301 300 301 303 304 305 305 304
223 230 238 243 246 249 245 241 243 249 255 259 264 269 272 275 278 281 281 281 284 292 298 300 306 312 315 316 315 314 312 311 309 308 306 304 303 302 301 300 300 299 300 302 305 307 308 308 306
231 233 241 249 254 256 248 245 246 249 256 261 265 268 273 277 280 278 277 279 283 289 293 297 303 310 314 315 315 313 312 310 308 306 304 303 301 300 300 299 299 299 301 304 307 310 311 310 308
235 239 245 253 256 254 250 249 247 246 250 257 265 272 276 281 281 280 280 281 284 287 291 295 302 309 311 313 313 311 310 308 307 306 305 303 302 301 300 299 298 300 303 306 308 311 312 312 310
230 235 243 247 251 252 254 255 252 250 254 260 267 274 278 283 283 279 278 281 284 287 290 295 302 307 309 311 312 312 311 310 309 308 307 304 302 300 298 297 299 301 304 308 310 312 313 313 311
229 231 237 245 248 251 255 257 258 257 258 262 266 271 277 281 283 284 283 282 284 286 291 298 303 307 310 313 314 313 312 311 311 310 308 305 302 298 297 299 301 304 307 310 312 313 313 313 311
234 235 238 243 244 247 254 257 259 262 263 264 266 270 274 278 282 284 282 281 282 286 293 300 305 309 312 314 313 312 312 312 312 311 309 306 302 300 301 303 305 308 310 311 311 312 312 311 309
Height
5902 5904 5905 5907 5909 5909 5908 5908 5909 5909 5910 5911 5912 5911 5909 5907 5906 5906 5902 5900 5899 5898 5896 5896 5895 5895 5895 5895 5895 5896 5895 5895 5895 5895 5895 5895 5894 5894 5894 5894 5893 5893 5893 5893 5892 5892 5891 5890 5889
5902 5904 5906 5906 5907 5906 5906 5907 5908 5907 5909 5911 5912 5911 5909 5905 5904 5901 5898 5897 5896 5894 5893 5892 5892 5892 5892 5892 5893 5893 5893 5892 5892 5892 5892 5892 5892 5891 5891 5890 5890 5890 5889 5889 5888 5888 5887 5886 5885
5902 5903 5905 5905 5905 5905 5905 5906 5906 5905 5905 5907 5908 5907 5906 5903 5900 5897 5895 5894 5893 5892 5891 5891 5890 5890 5890 5890 5890 5890 5890 5889 5889 5888 5888 5889 5888 5888 5888 5887 5887 5886 5886 5885 5884 5883 5882 5881 5880
5901 5903 5905 5905 5903 5904 5903 5903 5904 5905 5905 5906 5906 5905 5903 5901 5897 5894 5892 5891 5891 5890 5890 5889 5889 5888 5888 5888 5888 5887 5887 5886 5886 5885 5885 5885 5884 5884 5884 5883 5882 5882 5881 5880 5880 5879 5878 5877 5875
5902 5903 5904 5903 5903 5903 5901 5901 5903 5904 5905 5906 5906 5904 5901 5899 5895 5893 5891 5891 5891 5890 5889 5888 5888 5887 5887 5886 5886 5885 5885 5884 5884 5883 5882 5882 5881 5880 5879 5878 5877 5876 5875 5874 5874 5873 5872 5871 5870
5902 5903 5904 5903 5903 5901 5900 5901 5903 5903 5904 5905 5905 5903 5900 5897 5895 5893 5892 5892 5891 5889 5888 5887 5886 5886 5886 5885 5884 5883 5882 5882 5881 5881 5880 5879 5878 5876 5875 5873 5872 5870 5869 5868 5867 5867 5866 5865 5863
5903 5903 5902 5902 5901 5899 5900 5902 5902 5901 5902 5902 5902 5900 5898 5896 5894 5893 5892 5891 5890 5888 5887 5885 5885 5884 5884 5882 5882 5881 5880 5879 5879 5878 5877 5875 5874 5872 5871 5869 5867 5865 5864 5862 5861 5860 5859 5858 5856
5902 5903 5901 5901 5900 5900 5901 5901 5901 5898 5898 5898 5898 5897 5896 5895 5894 5893 5892 5890 5888 5887 5885 5884 5883 5883 5881 5880 5879 5878 5877 5876 5875 5874 5872 5871 5869 5867 5866 5864 5862 5860 5859 5857 5855 5854 5852 5851 5850
5901 5902 5899 5899 5900 5901 5901 5901 5899 5896 5895 5896 5895 5894 5893 5892 5893 5892 5890 5888 5885 5884 5883 5882 5881 5880 5879 5877 5876 5875 5874 5872 5870 5869 5868 5866 5864 5862 5860 5859 5857 5855 5854 5852 5850 5848 5847 5845 5844
5899 5899 5898 5898 5899 5901 5900 5899 5897 5895 5894 5894 5893 5892 5890 5889 5889 5889 5887 5884 5882 5882 5880 5879 5878 5878 5876 5875 5873 5872 5870 5868 5866 5864 5863 5860 5858 5856 5855 5853 5852 5850 5848 5847 5845 5843 5841 5839 5838
5897 5897 5896 5895 5897 5899 5898 5897 5895 5893 5894 5893 5891 5890 5887 5886 5885 5884 5884 5882 5880 5878 5877 5876 5875 5874 5873 5872 5870 5868 5866 5864 5862 5860 5858 5855 5852 5850 5848 5847 5845 5844 5842 5840 5838 5836 5834 5832 5831
5895 5894 5893 5893 5895 5898 5896 5894 5893 5891 5892 5891 5890 5888 5885 5883 5881 5880 5880 5879 5876 5874 5873 5872 5871 5869 5868 5867 5866 5864 5862 5860 5857 5855 5852 5850 5847 5845 5842 5840 5839 5837 5835 5833 5831 5829 5827 5825 5823
5891 5892 5891 5889 5891 5894 5894 5892 5891 5889 5888 5888 5887 5885 5882 5879 5877 5876 5876 5875 5873 5871 5868 5867 5867 5864 5864 5863 5862 5860 5857 5854 5851 5849 5846 5844 5841 5839 5836 5833 5831 5830 5828 5826 5824 5822 5819 5817 5814
5887 5887 5888 5887 5886 5888 5890 5889 5888 5886 5885 5884 5883 5881 5879 5876 5874 5873 5872 5871 5869 5866 5864 5863 5861 5859 5858 5857 5856 5855 5852 5848 5845 5842 5840 5838 5835 5833 5831 5828 5825 5823 5821 5818 5815 5813 5810 5808 5805
5883 5884 5885 5885 5884 5884 5885 5886 5886 5884 5881 5880 5879 5877 5876 5874 5873 5871 5870 5868 5865 5862 5860 5857 5855 5853 5852 5851 5849 5848 5846 5843 5840 5837 5834 5831 5828 5825 5822 5820 5817 5814 5811 5808 5805 5802 5799 5796 5793
5880 5881 5882 5881 5881 5881 5882 5883 5883 5880 5878 5876 5875 5873 5872 5872 5870 5868 5867 5865 5864 5860 5858 5855 5853 5851 5851 5848 5845 5842 5839 5837 5835 5831 5828 5824 5821 5818 5814 5811 5808 5804 5800 5796 5793 5789 5786 5783 5780
5875 5877 5877 5877 5877 5877 5877 5878 5878 5875 5874 5873 5872 5870 5869 5868 5867 5865 5863 5862 5860 5858 5856 5853 5850 5849 5847 5844 5841 5837 5834 5832 5829 5825 5821 5817 5813 5809 5806 5802 5799 5794 5790 5787 5783 5779 5775 5771 5768
5870 5871 5872 5872 5872 5872 5871 5872 5872 5871 5871 5870 5869 5868 5866 5865 5863 5862 5861 5859 5856 5854 5852 5849 5846 5844 5842 5838 5835 5831 5828 5825 5822 5818 5814 5810 5806 5802 5797 5793 5789 5784 5780 5776 5772 5767 5763 5758 5754
5863 5864 5866 5868 5867 5865 5864 5864 5865 5865 5866 5866 5866 5866 5864 5863 5861 5859 5858 5855 5853 5850 5847 5844 5841 5838 5835 5831 5828 5824 5821 5817 5813 5809 5805 5801 5797 5792 5788 5784 5779 5774 5769 5765 5760 5756 5750 5744 5738
5856 5857 5859 5862 5862 5861 5860 5859 5860 5861 5862 5862 5863 5863 5862 5860 5859 5857 5854 5851 5849 5846 5843 5839 5836 5832 5828 5824 5821 5817 5812 5808 5804 5800 5795 5791 5787 5782 5778 5773 5768 5762 5757 5751 5746 5741 5734 5727 5720
5849 5851 5854 5856 5857 5856 5857 5856 5856 5856 5856 5857 5858 5859 5858 5856 5854 5852 5850 5847 5845 5842 5838 5834 5830 5826 5822 5818 5814 5809 5805 5800 5796 5791 5786 5781 5776 5771 5766 5761 5755 5749 5742 5735 5729 5723 5716 5709 5701
5841 5845 5847 5848 5850 5851 5853 5852 5851 5849 5849 5851 5852 5853 5852 5851 5849 5848 5845 5843 5840 5837 5833 5828 5824 5820 5815 5811 5806 5802 5797 5792 5787 5781 5776 5770 5764 5758 5752 5746 5740 5733 5726 5719 5711 5704 5696 5689 5681
5835 5838 5839 5841 5842 5844 5845 5845 5845 5841 5842 5844 5846 5846 5846 5845 5844 5842 5840 5837 5835 5831 5826 5821 5816 5812 5807 5803 5798 5793 5788 5783 5777 5772 5765 5759 5752 5745 5738 5732 5724 5717 5710 5702 5695 5687 5680 5672 5665
5828 5831 5832 5833 5834 5834 5839 5839 5837 5834 5836 5838 5838 5839 5839 5838 5837 5836 5833 5831 5828 5824 5820 5814 5809 5805 5800 5795 5790 5784 5779 5773 5767 5760 5753 5747 5740 5733 5725 5718 5710 5703 5696 5689 5682 5674 5667 5660 5652
5821 5823 5824 5825 5825 5826 5832 5830 5830 5829 5829 5830 5831 5831 5831 5831 5830 5828 5826 5823 5820 5817 5812 5807 5802 5798 5793 5787 5781 5775 5769 5762 5756 5749 5742 5735 5728 5720 5713 5705 5698 5690 5683 5677 5670 5663 5656 5649 5642
5815 5816 5817 5818 5818 5820 5822 5821 5823 5823 5822 5822 5823 5823 5823 5823 5822 5819 5816 5814 5811 5808 5804 5799 5795 5790 5785 5779 5773 5766 5760 5753 5746 5738 5731 5723 5715 5707 5699 5692 5685 5678 5672 5666 5659 5652 5645 5638 5632
5807 5808 5811 5812 5811 5812 5812 5813 5814 5815 5815 5815 5815 5815 5815 5815 5813 5810 5808 5806 5803 5800 5796 5791 5787 5782 5777 5771 5765 5758 5751 5743 5735 5726 5717 5708 5700 5692 5685 5678 5673 5667 5662 5655 5649 5642 5635 5628 5621
5800 5802 5804 5804 5804 5804 5805 5804 5805 5808 5809 5809 5808 5808 5807 5807 5806 5803 5801 5798 5795 5791 5787 5783 5778 5774 5769 5762 5755 5747 5739 5730 5720 5711 5702 5693 5685 5678 5672 5667 5663 5657 5652 5645 5639 5631 5624 5616 5609
5794 5795 5796 5797 5797 5797 5797 5799 5800 5800 5801 5801 5801 5800 5800 5799 5798 5795 5792 5789 5785 5781 5777 5773 5769 5764 5758 5751 5743 5734 5725 5716 5706 5697 5687 5678 5671 5666 5662 5658 5653 5648 5642 5635 5627 5620 5612 5604 5596
5786 5787 5788 5788 5788 5790 5790 5794 5793 5793 5793 5792 5792 5792 5792 5791 5790 5787 5783 5779 5775 5771 5768 5764 5760 5754 5748 5740 5731 5722 5713 5703 5694 5684 5674 5667 5662 5658 5654 5649 5644 5638 5631 5623 5615 5607 5599 5591 5584